Content
SEND FEEDBACK

Daily
Averages
Monthly
Summary
United States of America

ST. LOUIS - SAINT LOUIS UNIVERSITY, MISSOURI


Home > North America > United States > Missouri
Elevation: 177 meters     Latitude: 38 38N     Longitude: 090 14W

WEATHER
 
SELECT A DAY
Number of Records: 188,449;   Date Range: 1/1/95 - 9/30/14
 
SHARE

PRINT THIS DATA

[ ← Previous Day ]
WEATHER ALMANAC - 16 MARCH, 2013
[ Next Day → ]
[ °F ]   °C
Weather ElementAverageHighLow
Temperature7.9 °C17.2 °C (2:53 am)3.9 °C (10:53 pm)
Dewpoint3.3 °C7.2 °C (6:53 am)1.7 °C (4:53 pm)
Humidity74.4 %93 % (9:13 pm)45 % (2:53 am)
Barometer1013.5 hPa1017.9 hPa (10:38 pm)1003.7 hPa (1:53 am)
Wind Speed15.8 km/h35.2 km/h (9:27 am)
Wind Gust48.1 km/h (10:53 am)
Weather ElementAverage
Visibility10.6 km
Wind DirectionSSW (198.7 °)

Weather ElementTotal
Precipitation0.76 mm
Heating Degree Days7.8 (Base 18.3)
Growing Degree Days0.6 (Base 10)
Averaged from 30 records on 16 March, 2013
WEATHER CONDITIONS BREAKOUT
WIND DIRECTION BREAKOUT
WEATHER BY HOUR - 16 MARCH, 2013
[ °F ]   °C
Local TimeTemperatureDewpointHumidityBarometerVisibilityWind DirectionWind SpeedGust SpeedPrecipitationEventsConditions
1:53 AM15.6 °C5 °C49 %1003.7 hPa16.1 kmSSW (200°)7.4 km/hClear
2:53 AM17.2 °C5 °C45 %1004.1 hPa16.1 kmSW (230°)9.3 km/hClear
3:53 AM16.7 °C5.6 °C48 %1004.1 hPa16.1 kmWSW (240°)11.1 km/hClear
4:53 AM17.2 °C6.1 °C48 %1004.7 hPa16.1 kmWest (260°)9.3 km/hClear
5:53 AM13.3 °C6.1 °C62 %1006.1 hPa16.1 kmNW (310°)14.8 km/hClear
6:53 AM12.8 °C7.2 °C69 %1007.5 hPa16.1 kmNW (310°)16.7 km/hClear
7:53 AM11.1 °C6.1 °C71 %1008.8 hPa16.1 kmNW (320°)24.1 km/hClear
8:53 AM9.4 °C5 °C74 %1010.8 hPa11.3 kmNNW (330°)31.5 km/hClear
9:27 AM8 °C4 °C76 %1012.2 hPa6.4 kmNNW (340°)35.2 km/hHaze
9:50 AM7 °C3 °C76 %1013.2 hPa4.8 kmNorth (360°)27.8 km/h38.9 km/hHaze
9:53 AM6.7 °C3.3 °C79 %1013.2 hPa4.8 kmNorth (350°)27.8 km/h38.9 km/hHaze
10:53 AM5.6 °C2.2 °C79 %1013.9 hPa4.8 kmNNW (330°)24.1 km/h48.1 km/hHaze
11:10 AM6 °C2 °C76 %1014.2 hPa6.4 kmNNW (340°)22.2 km/h33.3 km/hHaze
11:53 AM6.7 °C2.2 °C73 %1014.9 hPa8 kmNNW (340°)22.2 km/hHaze
12:53 PM7.2 °C2.2 °C71 %1015.9 hPa9.7 kmNNW (340°)20.4 km/hHaze
1:53 PM7.2 °C2.2 °C71 %1015.6 hPa8 kmNNW (340°)20.4 km/hHaze
2:53 PM7.2 °C2.2 °C71 %1015.9 hPa8 kmNNW (340°)20.4 km/hHaze
3:53 PM7.2 °C2.2 °C71 %1016.3 hPa8 kmNNW (340°)18.5 km/hHaze
4:53 PM6.7 °C1.7 °C71 %1016.6 hPa8 kmNorth (10°)14.8 km/hHaze
5:53 PM6.1 °C1.7 °C74 %1016.3 hPa12.9 kmNE (40°)14.8 km/h0 mmOvercast
6:53 PM5.6 °C2.2 °C79 %1016.6 hPa8 kmNNE (20°)14.8 km/h0 mmRainLight Rain
7:53 PM4.4 °C2.8 °C89 %1017.3 hPa6.4 kmNNE (30°)5.6 km/h0.51 mmRainLight Rain
8:53 PM4.4 °C2.8 °C89 %1017.6 hPa8 kmCalm0.25 mmRainLight Rain
9:13 PM4 °C3 °C93 %1017.6 hPa8 kmNNE (30°)5.6 km/h0 mmOvercast
9:53 PM4.4 °C2.2 °C86 %1017.3 hPa9.7 kmNE (40°)14.8 km/h0 mmOvercast
10:25 PM4 °C2 °C87 %1017.6 hPa11.3 kmENE (60°)5.6 km/hMostly Cloudy
10:38 PM4 °C3 °C93 %1017.9 hPa9.7 kmCalmMostly Cloudy
10:53 PM3.9 °C2.2 °C89 %1017.9 hPa12.9 kmNE (40°)13 km/hOvercast
11:15 PM4 °C2 °C87 %1017.6 hPa14.5 kmNNE (30°)13 km/hOvercast
11:53 PM3.9 °C1.7 °C86 %1017.9 hPa14.5 kmNE (40°)9.3 km/hOvercast
Hourly data recorded from KCPS, located 0 kilometers away from St. Louis - Saint Louis University, Missouri







STORIES FROM OUR PARTNERS